Simultaneous Nadir Overpasses (SNOs) Predictions

Prediction of SNOs between AQUA and NOAA-19 Satellite Orbit:

Table of predicted SNOs for the next 14.0 days since TLE Epoch: 6/12/2020
Index Date (AQUA) Time (AQUA) Lat,Lon (AQUA) SZA (AQUA ) Date (NOAA-19) Time (NOAA-19) Lat,Lon (NOAA-19) SZA (NOAA-19 ) Distance(km) Time Diff (sec)
1 06/13/2020 08:39:01 79.74, 21.71 57.81 06/13/2020 08:38:35 79.73, 21.55 57.83 3.30 26
2 06/13/2020 09:28:28 -79.76,-170.75 122.18 06/13/2020 09:29:35 -79.77,-170.80 122.19 1.65 67
3 06/15/2020 14:12:45 -79.74, 118.29 122.28 06/15/2020 14:11:54 -79.73, 118.31 122.27 1.09 51
4 06/15/2020 15:02:12 79.76, -74.25 57.76 06/15/2020 15:02:52 79.75, -74.25 57.73 1.85 40
5 06/17/2020 19:46:23 79.53,-143.62 57.35 06/17/2020 19:45:19 79.47,-147.65 57.72 81.87 64
6 06/17/2020 20:35:56 -79.76, 22.34 122.30 06/17/2020 20:36:12 -79.74, 22.38 122.34 2.96 16
7 06/20/2020 02:09:39 79.74, 119.05 57.65 06/20/2020 02:09:27 79.73, 119.14 57.64 2.13 12
8 06/22/2020 07:43:22 -79.71,-144.11 122.39 06/22/2020 07:42:48 -79.72,-144.22 122.35 3.02 34
9 06/22/2020 08:32:49 79.74, 23.31 57.66 06/22/2020 08:33:44 79.75, 23.30 57.65 1.34 55
10 06/24/2020 13:17:05 79.70, -47.46 57.65 06/24/2020 13:16:02 79.72, -47.52 57.70 2.72 63
11 06/24/2020 14:06:33 -79.74, 119.88 122.30 06/24/2020 14:07:06 -79.72, 119.79 122.31 2.20 33




NCC Satellite Simultaneous Nadir Overpasses (SNOs) Prediction Service
